Location: Budna
(46.3358°N, 14.8011°E)
Time: 17:52:21
(UTC+00:00)

Daily predictions for brighter satellites

Satellite Brightness Start Highest point End
(mag) Time Altitude Azimuth Time Altitude Azimuth Time Altitude Azimuth
Cosmos 1844 Rocket 3.1 19:25:11 10° NNW 19:30:38 51° ENE 19:36:03 10° SE
USA 245 4.0 19:31:28 10° SE 19:34:33 37° ENE 19:38:23 10° N
Meteor 2-10 Rocket 3.5 19:30:44 10° N 19:35:51 74° ENE 19:41:07 10° SSE
H-2A ROCKET BODY 4.4 19:32:13 10° SSW 19:36:16 19° SSE 19:45:16 10° SE
Cosmos 1758 Rocket 4.1 19:32:56 10° SSE 19:37:10 42° E 19:41:25 10° NNE
Cosmos 1400 Rocket 3.6 19:34:31 10° N 19:38:13 35° ENE 19:41:50 10° SE
Cosmos 1626 Rocket 3.9 19:34:21 10° SSW 19:38:46 71° W 19:43:15 10° N
SPOT 5 4.2 19:35:26 10° ESE 19:39:33 26° ENE 19:43:30 10° N
Lacrosse 5 rocket 3.8 19:37:49 10° WNW 19:41:27 26° NNW 19:44:56 10° NE
Spot 2 Rocket 3.8 19:37:18 10° SSE 19:42:16 57° ENE 19:47:17 10° N
ATLAS 5 CENTAUR R/B 4.1 19:41:04 10° W 19:44:01 20° NW 19:45:51 10° N
Cosmos 1745 Rocket 4.0 19:40:49 10° S 19:46:59 77° E 19:53:16 10° N
Landsat 7 4.1 19:43:23 10° SSE 19:48:03 57° ENE 19:52:43 10° N
Cosmos 1125 Rocket 4.3 19:46:19 10° NNW 19:51:23 50° WSW 19:56:26 10° S
USA 267 4.2 19:49:39 10° E 19:55:48 45° NNE 20:01:59 10° NW
Meteor 1-21 Rocket 4.4 19:50:11 10° S 19:56:05 87° W 20:02:04 10° N
SPOT 1/Viking Rocket 3.8 19:51:23 10° SSE 19:56:26 59° ENE 20:01:31 10° N
Cosmos 1953 Rocket 4.1 19:56:17 10° SSE 20:00:17 39° E 20:04:20 10° NNE
Alouette 2 Rocket 3.8 19:57:37 10° N 20:01:23 60° ENE 20:06:10 11° SSE
Cosmos 2322 Rocket 3.1 19:56:25 10° SW 20:01:54 53° WNW 20:07:25 10° NNE
NOSS 7 (D) 4.3 20:01:17 10° SW 20:04:06 61° NW 20:06:46 10° NNE
Cosmos 2237 4.3 19:58:48 10° SSW 20:04:32 86° WNW 20:10:19 10° NNE
Cosmos 1328 3.8 20:02:41 10° S 20:06:37 68° E 20:10:35 10° NNE
SAR-Lupe-2 3.8 20:06:43 10° NNE 20:10:14 49° E 20:13:38 11° S
Cosmos 1455 2.9 20:08:44 10° NNW 20:12:29 53° W 20:16:15 10° S
Cosmos 1825 Rocket 3.6 20:11:31 10° S 20:15:56 87° ESE 20:20:26 10° N
ATLAS CENTAUR R/B 2.1 20:16:06 10° NNW 20:19:35 37° NE 20:22:16 15° ESE
Cosmos 1703 3.4 20:16:42 10° SSW 20:20:33 73° W 20:24:27 10° N
COSMOS 2428 3.1 20:16:24 10° S 20:21:42 43° ESE 20:27:01 10° NE
SL-24 R/B - RUBIN 2 4.4 20:18:38 10° SSW 20:24:38 76° ESE 20:31:16 10° NE
Cosmos 1844 3.8 20:19:01 10° NNW 20:24:49 79° WSW 20:29:32 16° SSE
Cosmos 2322 3.7 20:19:51 10° SSW 20:25:33 75° ESE 20:31:17 10° NNE
CZ-4B DEB 4.4 20:28:15 18° S 20:30:38 81° WSW 20:34:00 10° NNW
Meteor 1-27 4.4 20:25:44 10° N 20:31:26 62° ENE 20:35:45 18° SSE
Cosmos 1709 Rocket 4.1 20:25:46 10° S 20:32:03 88° W 20:38:27 10° N
NOSS 3-3 (A) 4.0 20:28:31 10° SSW 20:34:09 56° ESE 20:40:30 10° NE
NOSS 3-3 (C) 4.0 20:28:37 10° SSW 20:34:16 55° ESE 20:40:37 10° NE
Terra 2.1 20:31:40 19° SE 20:35:01 57° ENE 20:39:42 10° N
Cosmos 2237 Rocket 3.5 20:33:12 17° SE 20:35:33 22° E 20:39:51 10° NE
CARTOSAT-1 3.5 20:32:57 18° SSE 20:36:11 90° WNW 20:40:31 10° NNW
Atlas Centaur 2 3.9 20:32:21 10° SW 20:36:42 19° S 20:38:47 17° SSE
Cosmos 2333 4.2 20:31:43 10° SSW 20:37:21 88° ESE 20:43:06 10° NNE
Cosmos 2219 Rocket 2.2 20:32:13 10° SSW 20:37:43 63° ESE 20:43:16 10° NNE
IGS 5A 4.5 20:35:34 10° S 20:39:27 41° W 20:43:25 10° NNW
Cosmos 2360 Rocket 3.2 20:34:19 10° SW 20:39:48 50° WNW 20:45:20 10° NNE
Cosmos 1538 Rocket 4.1 20:35:15 10° S 20:40:32 63° ESE 20:45:48 10° NNE
DELTA 2 R/B (1) 4.4 20:40:37 10° SSW 20:45:11 26° SSE 20:49:12 12° ESE
Cosmos 2184 Rocket 4.4 20:42:26 19° SSE 20:46:44 48° E 20:52:45 10° NNE
Cosmos 2333 Rocket 2.2 20:41:50 10° SSW 20:47:31 80° ESE 20:53:16 10° NNE
Resurs 01 Rocket 4.2 20:49:02 10° SW 20:51:37 15° W 20:54:12 10° NW
Cosmos 1315 Rocket 2.8 20:47:45 10° N 20:51:53 86° E 20:54:13 25° SSE
ATLAS 2AS CENTAUR R/B 3.7 20:45:10 10° NW 20:52:31 45° NE 20:59:01 11° ESE
Cosmos-2242 4.4 20:51:16 10° NNW 20:55:12 34° W 20:59:05 10° SSW
Cosmos 773 Rocket 4.4 20:52:19 10° SSW 20:57:34 65° WNW 21:02:51 10° NNE
Cosmos 2221 2.7 20:56:00 10° N 21:00:21 61° ENE 21:02:29 28° SSE
ERS-1 Rocket 3.5 20:56:51 17° S 21:00:39 54° W 21:05:37 10° NNW
GEOS 3 Rocket 4.5 20:57:37 10° NNE 21:02:53 56° NW 21:08:08 10° WSW
USA 215 3.2 20:59:29 10° NE 21:06:05 85° SE 21:12:39 10° SW
Cosmos 1892 3.3 21:07:02 32° SE 21:08:05 40° E 21:11:40 10° NNE
Cosmos 2278 Rocket 2.4 21:04:10 10° NNW 21:09:50 67° ENE 21:13:09 25° SE
ATLAS 5 CENTAUR R/B 3.4 21:08:23 10° WSW 21:12:16 34° NW 21:16:37 10° NNE
Cosmos 1844 Rocket 4.2 21:09:39 10° NW 21:14:12 26° WSW 21:18:16 12° SSW
Cosmos 158 Rocket 4.5 21:13:10 28° SE 21:14:47 37° ESE 21:19:16 10° NE
Gblst 52 Del rocket 4.3 21:10:20 10° WNW 21:16:05 84° SSW 21:20:33 21° ESE
Cosmos 1943 Rocket 4.5 21:13:47 10° N 21:17:16 16° NE 21:20:43 10° ENE
SPOT 5 3.8 21:13:56 18° SSW 21:17:25 43° W 21:22:02 10° NNW
SL-16 R/B 3.7 21:18:55 18° ESE 21:19:57 19° E 21:23:45 10° ENE
Lacrosse 5 rocket 4.1 21:18:49 10° NW 21:21:44 18° N 21:24:32 10° NE
Cosmos 2056 Rocket 4.5 21:19:31 10° N 21:24:36 39° ENE 21:27:39 21° ESE
Nadezhda 3 Rocket 4.2 21:19:20 10° N 21:25:42 65° ENE 21:29:11 28° SSE
Cosmos 2154 Rocket 4.1 21:23:04 27° SSE 21:26:32 62° E 21:32:39 10° NNE
Cosmos 2058 2.9 21:25:00 36° SSE 21:26:32 69° E 21:30:40 10° NNE
BREEZE M DEB (TANK) 4.1 21:27:07 10° W 21:27:39 13° WSW 21:27:39 13° WSW
Cosmos 1408 3.0 21:29:06 40° ESE 21:29:34 42° E 21:32:59 10° NNE
Meteor 2-17 Rocket 4.4 21:27:25 24° S 21:31:19 86° E 21:37:25 10° N
In-Cosmos 22 Rocket 4.0 21:29:55 27° S 21:32:55 85° ESE 21:38:16 10° NNE
Cosmos 2074 Rocket 4.1 21:29:16 19° SSW 21:33:52 76° W 21:40:07 10° N
TSX-5 3.6 21:32:52 10° NNW 21:36:25 81° WSW 21:37:36 44° SSE
Cosmos 1076 Rocket 3.4 21:36:08 38° S 21:37:45 80° E 21:42:02 10° N
Cosmos 1680 Rocket 3.5 21:35:42 30° S 21:38:19 67° ESE 21:43:37 10° NNE
USA 267 3.2 21:34:05 23° SE 21:38:30 85° SW 21:45:07 10° NW
Cosmos 2084 4.4 21:42:55 10° NW 21:47:00 36° WSW 21:48:05 31° SSW
Cosmos 2151 3.5 21:47:18 38° SE 21:48:13 45° E 21:52:18 10° NNE
COSMOS 2455 4.4 21:44:26 10° NNW 21:49:41 29° NE 21:54:53 10° E
EO 1 Delta rocket 4.3 21:44:56 10° NNE 21:50:01 67° E 21:52:50 32° S
Cosmos 923 Rocket 4.2 21:52:19 21° SSW 21:55:53 69° WNW 22:01:11 10° NNE
ATLAS CENTAUR R/B 2.7 21:55:25 10° WNW 21:58:14 21° WSW 21:58:26 21° WSW
Cosmos 1825 2.1 21:58:09 57° SE 21:58:40 66° E 22:02:26 10° NNE
ALOS 2 3.2 21:58:03 34° ESE 21:59:27 47° ENE 22:03:41 10° N
Cosmos 1340 4.3 21:59:38 21° E 21:59:38 21° E 22:02:32 10° NE
Cosmos 1980 3.7 21:56:55 21° SSW 22:00:48 78° WNW 22:06:29 10° NNE
Cosmos 1933 4.5 21:57:52 10° N 22:01:29 31° ENE 22:02:24 28° E
Cosmos 2369 Rocket 4.2 21:57:39 10° N 22:01:56 22° NE 22:06:12 10° E
Cosmos 1151 Rocket 4.0 21:58:01 10° N 22:02:03 36° ENE 22:03:13 30° ESE
Cosmos 44 3.5 22:05:15 39° ESE 22:05:17 39° ESE 22:09:24 10° NE
COSMOS 2428 4.2 22:00:55 10° WSW 22:06:04 35° NW 22:11:15 10° NNE
Cosmos 371 Rocket 4.2 22:05:05 10° N 22:09:42 41° ENE 22:11:47 27° ESE
Cosmos 1295 Rocket 4.5 22:06:31 30° SSW 22:09:46 81° W 22:15:54 10° N
GP-B 3.5 22:06:05 10° NNE 22:10:25 49° E 22:11:23 41° SE
Terra 3.9 22:10:33 12° SW 22:13:07 18° W 22:16:22 10° NW
NOSS 0 Rocket 4.4 22:07:31 11° SW 22:13:18 59° WNW 22:19:25 10° NNE
Cosmos 1624 Rocket 3.9 22:09:55 10° NNW 22:15:10 84° WSW 22:16:57 42° SSE
Cosmos 962 Rocket 4.5 22:12:15 33° S 22:15:21 89° E 22:21:45 10° N
NOSS 3-4 (A) 3.8 22:08:53 10° NW 22:15:53 74° SW 22:19:47 32° SSE
NOSS 3-4 (C) 3.8 22:09:00 10° NW 22:16:00 75° SW 22:19:55 32° SSE
SL-4 R/B 3.5 22:19:54 14° NNE 22:19:54 14° NNE 22:20:25 10° NNE
Cosmos 2237 Rocket 2.6 22:14:58 19° SW 22:19:08 62° WNW 22:24:49 10° NNE
Nimbus 7 Rocket 4.4 22:13:58 10° NNE 22:19:55 73° ESE 22:22:22 37° S
Genesis I 3.4 22:18:36 37° WSW 22:19:58 68° NW 22:23:52 10° NNE
CREW DRAGON DEMO-1 DEB 4.3 22:22:53 30° ENE 22:22:53 30° ENE 22:24:37 10° ENE
Cosmos 2344 3.5 22:16:02 18° SSW 22:21:55 83° SE 22:30:00 10° NE
Cosmos 2219 Rocket 4.2 22:17:34 10° WSW 22:22:07 25° NW 22:26:44 10° N
Cosmos 1782 4.5 22:19:22 10° NNE 22:22:35 23° ENE 22:23:34 21° E
Cosmos 1346 Rocket 4.0 22:28:04 28° E 22:28:13 28° E 22:31:36 10° NNE
Thor Agena Rocket 4.1 22:25:40 10° N 22:30:38 52° WNW 22:33:18 26° SW
DELTA 2 R/B (1) 4.0 22:25:41 10° WSW 22:36:22 - ESE 22:30:03 39° SSW
Cosmos 1515 Rocket 3.9 22:38:00 10° N 22:42:17 54° ENE 22:43:15 44° ESE
BREEZE-M DEB (TANK) 2.7 22:39:19 10° WNW 22:41:22 32° WNW 22:41:22 32° WNW
ATLAS 2AS CENTAUR R/B 3.0 22:36:26 10° NW 22:43:42 55° WSW 22:46:25 36° S
Cosmos 1766 Rocket 3.6 22:44:24 49° SW 22:45:26 69° W 22:49:51 10° N
Okean 3 Rocket 4.0 22:47:02 41° SW 22:48:17 56° WNW 22:52:40 10° N
Gbstr 26 Del rocket 3.5 22:49:28 38° ESE 22:49:28 38° ESE 22:52:29 10° ENE
USA 215 4.4 22:42:38 10° NE 22:48:48 45° NNW 22:54:57 10° W
Cosmos 1328 Rocket 3.5 22:45:22 10° NNW 22:49:41 76° W 22:50:25 58° SSW
Aureole 2 Rocket 3.5 22:47:09 10° NW 22:48:59 31° WNW 22:48:59 31° WNW
Cosmos 1606 3.1 22:48:12 10° NNW 22:51:59 51° W 22:52:19 49° WSW
Cosmos 2278 Rocket 3.8 22:49:17 10° NW 22:53:21 21° W 22:54:59 18° WSW
Cosmos 2218 Rocket 4.0 22:50:54 37° SSW 22:53:40 84° W 23:00:01 10° N
Cosmos 864 Rocket 4.4 22:52:04 38° S 22:54:40 89° W 23:01:01 10° N
Cosmos 2297 3.8 22:49:40 10° NNW 22:55:22 67° WSW 22:57:11 43° S
Cosmos 304 Rocket 4.3 22:51:27 10° NNW 22:56:12 53° ENE 22:58:04 33° ESE
Cosmos 1943 4.5 22:56:06 24° ESE 22:57:22 26° ESE 23:01:58 10° NE
Cosmos 2228 Rocket 3.9 22:53:33 10° N 22:57:57 44° ENE 22:59:19 34° ESE
Cosmos 1420 Rocket 4.0 22:53:52 10° NNW 22:59:07 68° WSW 23:00:36 46° S
Cosmos 2366 rocket 4.0 22:56:35 37° SSW 22:59:21 80° W 23:05:45 10° N
Cosmos 1633 2.7 23:01:11 61° E 23:01:11 61° E 23:04:47 10° NNE
Lacrosse 5 rocket 3.0 22:58:17 10° NW 23:01:54 31° NNE 23:05:20 10° E
Cosmos 1943 Rocket 2.3 22:56:24 10° NNW 23:02:06 72° ENE 23:04:40 33° SE
SL-16 R/B 2.3 23:00:46 33° SW 23:03:24 73° WNW 23:09:07 10° NNE
Landsat 4 3.8 23:00:03 10° NNE 23:03:49 60° ESE 23:03:59 59° ESE
Cosmos 1821 Rocket 4.4 23:05:52 33° SSE 23:08:17 52° E 23:14:10 10° NNE
YAOGAN 11 4.0 23:09:09 58° S 23:10:01 85° W 23:14:27 10° NNW
Cosmos 1743 Rocket 3.5 23:12:36 58° SSE 23:13:19 72° E 23:17:40 10° NNE
Sich 1 4.4 23:15:28 24° ESE 23:16:26 26° E 23:20:03 10° NNE
Cosmos 332 Rocket 3.8 23:15:43 10° NNW 23:20:29 65° WSW 23:21:28 51° SSW
Cosmos 1048 Rocket 4.0 23:19:33 46° S 23:21:06 73° ESE 23:26:22 10° NNE
USA 267 4.2 23:21:24 26° SW 23:22:06 26° SW 23:27:28 10° WNW
Meteor 2-3 Rocket 4.0 23:21:02 36° SW 23:23:16 62° WNW 23:28:57 10° N
Helios 1A 3.4 23:24:53 44° WSW 23:25:18 45° W 23:29:20 10° NNW
Cosmos 405 3.1 23:25:42 10° NNW 23:29:08 64° W 23:29:08 64° W
Meteor 1-29 4.0 23:26:10 10° NNE 23:29:10 33° E 23:29:10 33° E
Meteor 1-10 Rocket 4.4 23:27:47 10° N 23:33:22 66° ENE 23:35:50 33° SSE
Cosmos 1452 Rocket 3.8 23:28:47 10° NNW 23:33:52 50° WSW 23:35:06 41° SSW
Cosmos 1340 4.0 23:34:23 26° W 23:35:05 28° WNW 23:38:24 10° N
CZ-4C R/B 3.2 23:28:18 10° NW 23:35:26 70° NE 23:43:38 10° SE
PSLV R/B 3.4 23:31:29 10° NNE 23:35:44 87° ESE 23:36:34 57° S
Meteor 2-6 Rocket 4.1 23:30:18 10° N 23:35:49 82° E 23:37:53 39° SSE
Cosmos 389 Rocket 4.4 23:33:02 10° NNE 23:35:56 23° ENE 23:37:05 20° E
ALOS 2 4.4 23:35:27 18° WSW 23:36:02 19° W 23:39:08 10° NW
COSMOS 2455 2.8 23:30:06 10° NW 23:36:06 67° WSW 23:38:24 38° S
SL-16 R/B 3.9 23:31:48 10° SE 23:37:18 34° ENE 23:42:51 10° N
Cosmos 1110 Rocket 4.1 23:32:36 10° NNW 23:37:55 76° ENE 23:40:15 34° SSE
Cosmos 1603 3.8 23:36:25 41° S 23:38:19 65° ESE 23:44:00 10° NNE
Cosmos 1727 Rocket 4.5 23:39:42 10° NNW 23:45:37 47° W 23:48:04 32° SW
Cosmos 1500 Rocket 3.9 23:44:49 43° SW 23:45:51 55° WNW 23:50:12 10° N
Resurs 1-4 Rocket 3.7 23:41:52 10° NE 23:46:13 25° E 23:48:45 18° SE
Cosmos 2369 Rocket 2.1 23:40:59 10° NNW 23:46:35 76° WSW 23:48:49 38° SSE
ISS -2.1 23:51:01 24° E 23:51:01 24° E 23:52:48 10° ENE
SeaSat 1 3.4 23:45:29 10° NE 23:49:58 34° ESE 23:51:20 29° SE
Helios 1B rocket 2.5 23:50:23 10° N 23:54:30 71° WNW 23:55:23 52° SW
